COSMOS 2251 DEB, 33842

Orbit data source: Space-Track

COSMOS 2251 DEB, 33842 is space debris in LEO originally from a launch on Wed, 16 Jun 1993 UTC launched from the Plesetsk Missile And Space Complex (PKMTR). The debris from Iridium 33, an American commercial communications satellite, has been tracked extensively since its accidental collision with the defunct Russian satellite Cosmos 2251 in 2009. This event, occurring at high speed in low Earth orbit (LEO), generated thousands of pieces of space debris, significantly increasing the risk of further collisions. The Iridium 33 debris cloud has impacted space traffic management and orbital debris mitigation strategies, making it a subject of ongoing study in space situational awareness.

Loading next visibility...
Identifier
33842, 1993-036CK
Orbit
LEO
Country
Flag of CISCIS
Related business
Manufacturer
Unknown
Mission
Spacecraft
Bus & Motor
Unknown
Mass
Unknown
Launch date (UTC)
1993-06-16 (32 years ago)
Launch vehicle
Unknown
Launch site
Plesetsk Missile And Space Complex (PKMTR)
Object type
Payload
Rocket body
Debris
Shape & HBR
Unknown shape, 0.2 m
Radar Cross Section
Small (<0.1 m²)

Expand to show TLE details & history
Last TLE update: 17 hours ago

TLE from 17 hours ago
0 COSMOS 2251 DEB
1 33842U 93036CK  25309.02427510  .00001193  00000-0  36284-3 0  9991
2 33842  74.0319 289.6498 0045761  45.8635 314.6270 14.42553607877930
Epoch: 2025-11-05T00:34Z
TLE epoch observation values (Epoch: 2025-11-05T00:34:57.368Z)
Latitude
-0.00001°
Longitude
-123.59212°
Altitude
729.85 km
Speed
7.502 km/s
True Right ascension
19h 18m 35s
True Declination
0° 00' 00"
Sunlit
Object was in daylight at epoch
Visualization orbit readout
Latitude
Unknown
Longitude
Unknown
Altitude
Unknown
Speed
Unknown
Apparent Right ascension
Unknown
Apparent Declination
Unknown
Sunlit
N/A
Visualization observer readout
Local Sidereal Time
13:50:57
Azimuth
Unknown
Elevation
Unknown
Doppler factor
Unknown
Orbital elements
Apogee altitude
780.299 km
Perigee altitude
715.082 km
Semi-major axis
7,125.828 km
Eccentricity
0.00458
Inclination
74.0319°
RAAN
289.6498°
Arg. of periapsis
45.8635°
True anomaly
314.2523°
Mean anomaly
314.627°
Eccentric anomaly
314.4398°
Mean motion
3.6082 °/min
Orbital period
99.77 mins
BSTAR
0.00036284
Loading maneuver chart data...
Computing Atmospheric mass density...

Documentation

Showing up to 5 results
|